Location: Sevilla
(37.3933°N, 5.9839°W)
Time: 12:08:23
(UTC+02:00)

S-56A Canister/Altair - Pass Details

Date: 27 June 2024
Orbit: 638 x 2488 km, 38.9° (Epoch: 14 July)

Event Time Altitude Azimuth Distance (km) Brightness Sun altitude
Rises 01:09:57 0° 280° (W) 4,410 11.8 -26.6°
Reaches altitude 10° 01:12:31 10° 280° (W) 3,649 11.3 -26.8°
Maximum altitude 01:22:29 89° 12° (NNE) 1,972 9.4 -27.4°
Drops below altitude 10° 01:36:45 10° 103° (ESE) 5,036 11.4 -28.2°
Sets 01:40:55 0° 104° (ESE) 6,129 11.9 -28.3°
